Belize, Belize

7:38 AM CST on July 21, 2017 (GMT -0600)
Philip S W Goldson International

Weather History for MZBZ - September, 2014

Change the Weather History Date:

Wednesday, September 3, 2014

  Actual Average Record
Temperature  
Mean Temperature 84 °F -  
Max Temperature 89 °F 88 °F 93 °F (2015)
Min Temperature 79 °F 75 °F 73 °F (1999)
Cooling Degree Days 19    
Growing Degree Days 34 (Base 50)    
Moisture  
Dew Point 78 °F    
Average Humidity 78    
Maximum Humidity 91    
Minimum Humidity 63    
Precipitation  
Precipitation 0.00 in 0.36 in - ()
Sea Level Pressure  
Sea Level Pressure 29.88 in    
Wind  
Wind Speed 6 mph ()    
Max Wind Speed 12 mph    
Max Gust Speed -    
Visibility 8.3 miles    
Events      
Averages and records for this station are not official NWS values.
T = Trace of Precipitation, MM = Missing Value Source: Averaged Metar Reports

Daily Weather History Graph

Daily Weather History Graph

Search for Another Location

Airport or City:

Trip Planner

Search our weather history database for the weather conditions in past years. The results will help you decide how hot, cold, wet, or windy it might be!

Date:

Astronomy

Sep. 03, 2014 Rise Set
Actual Time 5:39 AM CST 6:05 PM CST
Civil Twilight 5:17 AM CST 6:27 PM CST
Nautical Twilight 4:51 AM CST 6:52 PM CST
Astronomical Twilight 4:26 AM CST 7:18 PM CST
Moon 1:20 PM CST (9/3) No Moon Set
Length of Visible Light 13h 09m
Length of Day
12h 25m
Waxing Gibbous, 64% of the Moon is Illuminated
Sep 3
Waxing Gibbous
Sep 8
Full
Sep 15
Last Quarter
Sep 24
New
Oct 1
First Quarter

Hourly Weather History & Observations

Time (CST) Temp. Heat Index Dew Point Humidity Pressure Visibility Wind Dir Wind Speed Gust Speed Precip Events Conditions
12:00 AM 80 °F - 78 °F 91% 29.91 in 12 mi ESE 3.5 mph - -   Scattered Clouds
3:00 AM 81 °F - 77 °F 83% 29.86 in 12 mi East 5.8 mph - -   Scattered Clouds
5:00 AM 80.6 °F 87.1 °F 77.0 °F 89% 29.85 in 6.2 mi East 4.6 mph - N/A   Partly Cloudy
6:00 AM 80 °F - 77 °F 87% 29.87 in 12 mi ESE 3.5 mph - -   Partly Cloudy
6:00 AM 80.6 °F 87.1 °F 77.0 °F 89% 29.86 in 6.2 mi ESE 3.5 mph - N/A   Scattered Clouds
7:00 AM 82.4 °F 92.4 °F 78.8 °F 89% 29.88 in 6.2 mi East 4.6 mph - N/A   Mostly Cloudy
8:00 AM 84.2 °F 96.1 °F 78.8 °F 84% 29.89 in 6.2 mi East 6.9 mph - N/A   Mostly Cloudy
9:00 AM 86 °F - 78 °F 70% 29.92 in 12 mi East 10.4 mph - -   Mostly Cloudy
9:00 AM 86.0 °F 96.9 °F 77.0 °F 74% 29.91 in 6.2 mi East 10.4 mph - N/A   Mostly Cloudy
10:00 AM 87.8 °F 102.5 °F 78.8 °F 75% 29.92 in 6.2 mi East 5.8 mph - N/A   Mostly Cloudy
11:00 AM 87.8 °F 99.7 °F 77.0 °F 70% 29.92 in 6.2 mi East 8.1 mph - N/A   Mostly Cloudy
12:00 PM 89 °F - 78 °F 63% 29.91 in 12 mi ESE 6.9 mph - -   Mostly Cloudy
12:00 PM 89.6 °F 104.7 °F 78.8 °F 70% 29.91 in 6.2 mi ESE 6.9 mph - N/A   Mostly Cloudy
1:00 PM 87.8 °F 102.5 °F 78.8 °F 75% 29.89 in 6.2 mi East 10.4 mph - N/A   Mostly Cloudy
2:00 PM 86.0 °F 99.3 °F 78.8 °F 79% 29.87 in 6.2 mi East 6.9 mph - N/A   Mostly Cloudy
3:00 PM 86 °F - 78 °F 73% 29.85 in 12 mi East 11.5 mph - -  
3:00 PM 86.0 °F 99.3 °F 78.8 °F 79% 29.85 in 6.2 mi East 11.5 mph - N/A   Mostly Cloudy
4:00 PM 87.8 °F 102.5 °F 78.8 °F 75% 29.84 in 6.2 mi East 9.2 mph - N/A   Scattered Clouds
5:00 PM 86.0 °F 99.3 °F 78.8 °F 79% 29.85 in 6.2 mi East 9.2 mph - N/A   Scattered Clouds
6:00 PM 84 °F - 77 °F 75% 29.87 in 12 mi East 8.1 mph - -   Partly Cloudy
6:00 PM 84.2 °F 94.1 °F 77.0 °F 79% 29.86 in 6.2 mi East 8.1 mph - N/A   Scattered Clouds
9:00 PM 83 °F - 77 °F 78% 29.93 in 12 mi East 5.8 mph - -   Scattered Clouds